Time,TemperatureF,DewpointF,PressureIn,WindDirection,WindDirectionDegrees,WindSpeedMPH,WindSpeedGustMPH,Humidity,HourlyPrecipIn,Conditions,Clouds,dailyrainin,SoftwareType,DateUTC
2013-11-28 00:00:00,34.4,28.2,30.16,NNW,333,8.0,11.0,78,0.00,,,0.69,Wunderground v.1.15,2013-11-28 05:00:00,
2013-11-28 00:05:00,34.3,28.2,30.16,North,353,9.0,11.0,78,0.00,,,0.00,Wunderground v.1.15,2013-11-28 05:05:00,
2013-11-28 00:10:00,34.1,27.6,30.15,NNW,337,10.0,10.0,77,0.00,,,0.00,Wunderground v.1.15,2013-11-28 05:10:00,
2013-11-28 00:15:00,34.0,27.5,30.16,NNE,20,10.0,10.0,77,0.00,,,0.00,Wunderground v.1.15,2013-11-28 05:15:00,
2013-11-28 00:20:00,33.9,27.4,30.17,NNW,328,10.0,10.0,77,0.00,,,0.00,Wunderground v.1.15,2013-11-28 05:20:00,
2013-11-28 00:25:00,33.8,27.4,30.17,North,356,9.0,10.0,77,0.00,,,0.00,Wunderground v.1.15,2013-11-28 05:25:00,
2013-11-28 00:30:00,33.6,27.5,30.17,NNW,328,7.0,7.0,78,0.00,,,0.00,Wunderground v.1.15,2013-11-28 05:30:00,
2013-11-28 00:35:00,33.4,27.6,30.17,NNW,328,7.0,7.0,79,0.00,,,0.00,Wunderground v.1.15,2013-11-28 05:35:00,
2013-11-28 00:40:00,33.2,27.4,30.17,NNW,328,7.0,7.0,79,0.00,,,0.00,Wunderground v.1.15,2013-11-28 05:40:00,
2013-11-28 00:45:00,33.0,27.5,30.17,North,359,7.0,7.0,80,0.00,,,0.00,Wunderground v.1.15,2013-11-28 05:45:00,
2013-11-28 00:50:00,32.8,27.3,30.17,NNW,333,7.0,10.0,80,0.00,,,0.00,Wunderground v.1.15,2013-11-28 05:50:00,
2013-11-28 00:55:00,32.6,27.4,30.17,North,356,7.0,10.0,81,0.00,,,0.00,Wunderground v.1.15,2013-11-28 05:55:00,
2013-11-28 01:00:00,32.4,27.2,30.17,NNW,332,6.0,9.0,81,0.00,,,0.00,Wunderground v.1.15,2013-11-28 06:00:00,
2013-11-28 01:05:00,32.3,27.4,30.17,NNW,330,6.0,9.0,82,0.00,,,0.00,Wunderground v.1.15,2013-11-28 06:05:00,
2013-11-28 01:15:00,32.1,27.2,30.18,NNW,345,6.0,7.0,82,0.00,,,0.00,Wunderground v.1.15,2013-11-28 06:15:00,
2013-11-28 01:20:00,32.0,27.1,30.18,NNW,336,5.0,5.0,82,0.00,,,0.00,Wunderground v.1.15,2013-11-28 06:20:00,
2013-11-28 01:25:00,31.9,27.0,30.19,NNW,340,5.0,7.0,82,0.00,,,0.00,Wunderground v.1.15,2013-11-28 06:25:00,
2013-11-28 01:35:00,31.8,26.9,30.20,NNW,345,5.0,5.0,82,0.00,,,0.00,Wunderground v.1.15,2013-11-28 06:35:00,
2013-11-28 01:40:00,31.8,27.2,30.20,NW,316,4.0,5.0,83,0.00,,,0.00,Wunderground v.1.15,2013-11-28 06:40:00,
2013-11-28 01:45:00,31.7,26.8,30.20,NNW,338,4.0,5.0,82,0.00,,,0.00,Wunderground v.1.15,2013-11-28 06:45:00,
2013-11-28 01:50:00,31.6,26.7,30.20,North,352,4.0,5.0,82,0.00,,,0.00,Wunderground v.1.15,2013-11-28 06:50:00,
2013-11-28 01:55:00,31.5,26.9,30.21,NW,318,4.0,5.0,83,0.00,,,0.00,Wunderground v.1.15,2013-11-28 06:55:00,
2013-11-28 02:00:00,31.4,26.8,30.20,North,352,4.0,4.0,83,0.00,,,0.00,Wunderground v.1.15,2013-11-28 07:00:00,
2013-11-28 02:10:00,31.2,27.2,30.21,NW,304,3.0,3.0,85,0.00,,,0.00,Wunderground v.1.15,2013-11-28 07:10:00,
2013-11-28 02:20:00,30.9,27.2,30.22,NNW,348,3.0,3.0,86,0.00,,,0.00,Wunderground v.1.15,2013-11-28 07:20:00,
2013-11-28 02:30:00,30.8,27.1,30.23,NW,312,4.0,6.0,86,0.00,,,0.00,Wunderground v.1.15,2013-11-28 07:30:00,
2013-11-28 02:40:00,30.8,27.1,30.23,NNE,25,4.0,4.0,86,0.00,,,0.00,Wunderground v.1.15,2013-11-28 07:40:00,
2013-11-28 02:45:00,30.8,27.1,30.23,NNW,338,4.0,7.0,86,0.00,,,0.00,Wunderground v.1.15,2013-11-28 07:45:00,
2013-11-28 02:50:00,30.7,27.0,30.23,North,352,5.0,5.0,86,0.00,,,0.00,Wunderground v.1.15,2013-11-28 07:50:00,
2013-11-28 02:55:00,30.7,26.7,30.24,NE,35,6.0,6.0,85,0.00,,,0.00,Wunderground v.1.15,2013-11-28 07:55:00,
2013-11-28 03:00:00,30.7,26.1,30.24,NNW,336,6.0,11.0,83,0.00,,,0.00,Wunderground v.1.15,2013-11-28 08:00:00,
2013-11-28 03:10:00,30.7,25.9,30.25,NNW,344,7.0,7.0,82,0.00,,,0.00,Wunderground v.1.15,2013-11-28 08:10:00,
2013-11-28 03:15:00,30.7,25.9,30.25,NNW,338,7.0,7.0,82,0.00,,,0.00,Wunderground v.1.15,2013-11-28 08:15:00,
2013-11-28 03:20:00,30.6,25.8,30.25,North,1,6.0,6.0,82,0.00,,,0.00,Wunderground v.1.15,2013-11-28 08:20:00,
2013-11-28 03:25:00,30.5,25.7,30.25,North,1,5.0,6.0,82,0.00,,,0.00,Wunderground v.1.15,2013-11-28 08:25:00,
2013-11-28 03:30:00,30.4,25.6,30.25,NNW,345,5.0,6.0,82,0.00,,,0.00,Wunderground v.1.15,2013-11-28 08:30:00,
2013-11-28 03:35:00,30.3,25.5,30.25,NNW,334,5.0,9.0,82,0.00,,,0.00,Wunderground v.1.15,2013-11-28 08:35:00,
2013-11-28 03:45:00,30.1,25.6,30.26,NNW,333,5.0,6.0,83,0.00,,,0.00,Wunderground v.1.15,2013-11-28 08:45:00,
2013-11-28 03:50:00,30.0,25.8,30.25,NNW,346,4.0,4.0,84,0.00,,,0.00,Wunderground v.1.15,2013-11-28 08:50:00,
2013-11-28 03:55:00,30.0,25.5,30.26,NNW,347,5.0,8.0,83,0.00,,,0.00,Wunderground v.1.15,2013-11-28 08:55:00,
2013-11-28 04:00:00,29.9,25.7,30.26,North,352,5.0,5.0,84,0.00,,,0.00,Wunderground v.1.15,2013-11-28 09:00:00,
2013-11-28 04:10:00,29.8,25.3,30.26,North,350,5.0,5.0,83,0.00,,,0.00,Wunderground v.1.15,2013-11-28 09:10:00,
2013-11-28 04:20:00,29.7,25.5,30.26,NNW,340,5.0,6.0,84,0.00,,,0.00,Wunderground v.1.15,2013-11-28 09:20:00,
2013-11-28 04:25:00,29.6,25.4,30.27,NNW,339,5.0,6.0,84,0.00,,,0.00,Wunderground v.1.15,2013-11-28 09:25:00,
2013-11-28 04:30:00,29.5,25.3,30.27,North,352,5.0,8.0,84,0.00,,,0.00,Wunderground v.1.15,2013-11-28 09:30:00,
2013-11-28 04:35:00,29.4,25.2,30.27,NW,319,6.0,8.0,84,0.00,,,0.00,Wunderground v.1.15,2013-11-28 09:35:00,
2013-11-28 04:45:00,29.4,25.2,30.28,North,350,6.0,7.0,84,0.00,,,0.00,Wunderground v.1.15,2013-11-28 09:45:00,
2013-11-28 04:50:00,29.3,25.1,30.28,NNW,340,6.0,6.0,84,0.00,,,0.00,Wunderground v.1.15,2013-11-28 09:50:00,
2013-11-28 04:55:00,29.2,25.3,30.28,NNW,342,6.0,6.0,85,0.00,,,0.00,Wunderground v.1.15,2013-11-28 09:55:00,
2013-11-28 05:00:00,29.2,25.3,30.28,North,353,6.0,6.0,85,0.00,,,0.00,Wunderground v.1.15,2013-11-28 10:00:00,
2013-11-28 05:10:00,29.1,25.2,30.29,NNW,338,7.0,7.0,85,0.00,,,0.00,Wunderground v.1.15,2013-11-28 10:10:00,
2013-11-28 05:20:00,29.0,25.3,30.30,NW,323,6.0,8.0,86,0.00,,,0.00,Wunderground v.1.15,2013-11-28 10:20:00,
2013-11-28 05:25:00,28.9,25.2,30.30,NNW,345,7.0,10.0,86,0.00,,,0.00,Wunderground v.1.15,2013-11-28 10:25:00,
2013-11-28 05:30:00,28.9,25.2,30.30,NNW,338,7.0,7.0,86,0.00,,,0.00,Wunderground v.1.15,2013-11-28 10:30:00,
2013-11-28 05:35:00,28.9,25.2,30.30,NNW,338,8.0,8.0,86,0.00,,,0.00,Wunderground v.1.15,2013-11-28 10:35:00,
2013-11-28 05:40:00,28.9,25.2,30.31,NNW,335,8.0,11.0,86,0.00,,,0.00,Wunderground v.1.15,2013-11-28 10:40:00,
2013-11-28 05:50:00,28.8,25.1,30.31,NNW,340,8.0,8.0,86,0.00,,,0.00,Wunderground v.1.15,2013-11-28 10:50:00,
2013-11-28 05:55:00,28.8,25.1,30.31,NNW,338,7.0,9.0,86,0.00,,,0.00,Wunderground v.1.15,2013-11-28 10:55:00,
2013-11-28 06:00:00,28.7,25.0,30.31,NW,319,7.0,7.0,86,0.00,,,0.00,Wunderground v.1.15,2013-11-28 11:00:00,
2013-11-28 06:10:00,28.6,24.9,30.32,NNW,346,7.0,7.0,86,0.00,,,0.00,Wunderground v.1.15,2013-11-28 11:10:00,
2013-11-28 06:20:00,28.5,24.8,30.33,North,11,6.0,6.0,86,0.00,,,0.00,Wunderground v.1.15,2013-11-28 11:20:00,
2013-11-28 06:25:00,28.4,24.7,30.33,NNE,13,6.0,7.0,86,0.00,,,0.00,Wunderground v.1.15,2013-11-28 11:25:00,
2013-11-28 06:30:00,28.3,24.4,30.33,North,350,6.0,6.0,85,0.00,,,0.00,Wunderground v.1.15,2013-11-28 11:30:00,
2013-11-28 06:35:00,28.3,24.4,30.33,North,1,7.0,8.0,85,0.00,,,0.00,Wunderground v.1.15,2013-11-28 11:35:00,
2013-11-28 06:40:00,28.3,24.6,30.34,NNW,342,7.0,7.0,86,0.00,,,0.00,Wunderground v.1.15,2013-11-28 11:40:00,
2013-11-28 06:50:00,28.2,24.6,30.34,North,356,6.0,7.0,86,0.00,,,0.00,Wunderground v.1.15,2013-11-28 11:50:00,
2013-11-28 06:55:00,28.2,24.6,30.35,WNW,293,6.0,10.0,86,0.00,,,0.00,Wunderground v.1.15,2013-11-28 11:55:00,
2013-11-28 07:00:00,28.2,24.6,30.35,NNE,18,7.0,7.0,86,0.00,,,0.00,Wunderground v.1.15,2013-11-28 12:00:00,
2013-11-28 07:10:00,28.1,24.5,30.36,North,358,6.0,6.0,86,0.00,,,0.00,Wunderground v.1.15,2013-11-28 12:10:00,
2013-11-28 07:20:00,28.2,24.6,30.36,NE,46,6.0,6.0,86,0.00,,,0.00,Wunderground v.1.15,2013-11-28 12:20:00,
2013-11-28 07:30:00,28.4,24.5,30.37,North,352,7.0,7.0,85,0.00,,,0.00,Wunderground v.1.15,2013-11-28 12:30:00,
2013-11-28 07:35:00,28.5,24.6,30.37,NNW,332,6.0,7.0,85,0.00,,,0.00,Wunderground v.1.15,2013-11-28 12:35:00,
2013-11-28 07:45:00,28.8,24.9,30.38,North,11,6.0,10.0,85,0.00,,,0.00,Wunderground v.1.15,2013-11-28 12:45:00,
2013-11-28 07:55:00,29.1,24.6,30.38,North,358,7.0,7.0,83,0.00,,,0.00,Wunderground v.1.15,2013-11-28 12:55:00,
2013-11-28 08:00:00,29.3,24.8,30.38,NNE,25,7.0,11.0,83,0.00,,,0.00,Wunderground v.1.15,2013-11-28 13:00:00,
2013-11-28 08:10:00,29.6,24.5,30.39,NNE,33,9.0,9.0,81,0.00,,,0.00,Wunderground v.1.15,2013-11-28 13:10:00,
2013-11-28 08:20:00,30.1,24.4,30.39,North,9,9.0,10.0,79,0.00,,,0.00,Wunderground v.1.15,2013-11-28 13:20:00,
2013-11-28 08:30:00,30.8,23.8,30.39,NNE,12,9.0,13.0,75,0.00,,,0.00,Wunderground v.1.15,2013-11-28 13:30:00,
2013-11-28 08:40:00,31.4,24.1,30.40,North,5,9.0,9.0,74,0.00,,,0.00,Wunderground v.1.15,2013-11-28 13:40:00,
2013-11-28 08:50:00,32.0,24.0,30.39,NE,37,9.0,9.0,72,0.00,,,0.00,Wunderground v.1.15,2013-11-28 13:50:00,
2013-11-28 09:00:00,32.5,23.1,30.40,NE,39,10.0,11.0,68,0.00,,,0.00,Wunderground v.1.15,2013-11-28 14:00:00,
2013-11-28 09:10:00,32.9,22.0,30.40,NE,36,11.0,15.0,64,0.00,,,0.00,Wunderground v.1.15,2013-11-28 14:10:00,
2013-11-28 09:15:00,33.1,21.9,30.40,NNE,15,12.0,15.0,63,0.00,,,0.00,Wunderground v.1.15,2013-11-28 14:15:00,
2013-11-28 09:25:00,33.6,22.7,30.40,NNW,338,11.0,13.0,64,0.00,,,0.00,Wunderground v.1.15,2013-11-28 14:25:00,
2013-11-28 09:30:00,33.8,22.1,30.40,East,94,10.0,10.0,62,0.00,,,0.00,Wunderground v.1.15,2013-11-28 14:30:00,
2013-11-28 09:35:00,33.8,22.1,30.40,NNE,29,10.0,10.0,62,0.00,,,0.00,Wunderground v.1.15,2013-11-28 14:35:00,
2013-11-28 09:40:00,34.3,22.6,30.40,NNE,27,10.0,11.0,62,0.00,,,0.00,Wunderground v.1.15,2013-11-28 14:40:00,
2013-11-28 09:45:00,34.4,21.5,30.40,NE,37,10.0,11.0,59,0.00,,,0.00,Wunderground v.1.15,2013-11-28 14:45:00,
2013-11-28 09:50:00,34.4,21.9,30.41,NE,45,11.0,11.0,60,0.00,,,0.00,Wunderground v.1.15,2013-11-28 14:50:00,
2013-11-28 09:55:00,34.8,21.9,30.41,ENE,60,11.0,11.0,59,0.00,,,0.00,Wunderground v.1.15,2013-11-28 14:55:00,
2013-11-28 10:00:00,35.5,23.4,30.41,NNW,330,9.0,9.0,61,0.00,,,0.00,Wunderground v.1.15,2013-11-28 15:00:00,
2013-11-28 10:10:00,36.0,23.0,30.41,NE,41,7.0,9.0,59,0.00,,,0.00,Wunderground v.1.15,2013-11-28 15:10:00,
2013-11-28 10:20:00,36.4,21.8,30.41,North,360,8.0,8.0,55,0.00,,,0.00,Wunderground v.1.15,2013-11-28 15:20:00,
2013-11-28 10:30:00,36.7,20.7,30.41,ENE,64,8.0,8.0,52,0.00,,,0.00,Wunderground v.1.15,2013-11-28 15:30:00,
2013-11-28 10:35:00,37.0,21.9,30.42,NE,48,8.0,8.0,54,0.00,,,0.00,Wunderground v.1.15,2013-11-28 15:35:00,
2013-11-28 10:40:00,37.3,22.6,30.41,NNE,15,7.0,7.0,55,0.00,,,0.00,Wunderground v.1.15,2013-11-28 15:40:00,
2013-11-28 10:45:00,37.8,22.2,30.41,NNW,348,7.0,10.0,53,0.00,,,0.00,Wunderground v.1.15,2013-11-28 15:45:00,
2013-11-28 10:50:00,37.8,22.2,30.41,North,353,8.0,8.0,53,0.00,,,0.00,Wunderground v.1.15,2013-11-28 15:50:00,
2013-11-28 10:55:00,37.6,21.1,30.41,NNE,16,9.0,9.0,51,0.00,,,0.00,Wunderground v.1.15,2013-11-28 15:55:00,
2013-11-28 11:00:00,37.8,21.7,30.41,NNE,30,9.0,9.0,52,0.00,,,0.00,Wunderground v.1.15,2013-11-28 16:00:00,
2013-11-28 11:10:00,38.4,23.2,30.41,WNW,300,6.0,6.0,54,0.00,,,0.00,Wunderground v.1.15,2013-11-28 16:10:00,
2013-11-28 11:20:00,38.9,22.3,30.41,ENE,70,7.0,7.0,51,0.00,,,0.00,Wunderground v.1.15,2013-11-28 16:20:00,
2013-11-28 11:30:00,39.3,22.7,30.41,NNE,15,6.0,6.0,51,0.00,,,0.00,Wunderground v.1.15,2013-11-28 16:30:00,
2013-11-28 11:35:00,39.4,22.3,30.41,East,80,5.0,6.0,50,0.00,,,0.00,Wunderground v.1.15,2013-11-28 16:35:00,
2013-11-28 11:40:00,39.8,22.7,30.42,NNE,23,5.0,6.0,50,0.00,,,0.00,Wunderground v.1.15,2013-11-28 16:40:00,
2013-11-28 11:50:00,40.3,23.1,30.42,NNE,12,5.0,5.0,50,0.00,,,0.00,Wunderground v.1.15,2013-11-28 16:50:00,
2013-11-28 11:55:00,40.3,21.6,30.42,NNE,27,6.0,8.0,47,0.00,,,0.00,Wunderground v.1.15,2013-11-28 16:55:00,
2013-11-28 12:00:00,40.2,21.6,30.41,East,80,7.0,7.0,47,0.00,,,0.00,Wunderground v.1.15,2013-11-28 17:00:00,
2013-11-28 12:10:00,40.9,23.2,30.41,ENE,74,4.0,4.0,49,0.00,,,0.00,Wunderground v.1.15,2013-11-28 17:10:00,
2013-11-28 12:20:00,41.2,23.0,30.41,NNW,347,4.0,4.0,48,0.00,,,0.00,Wunderground v.1.15,2013-11-28 17:20:00,
2013-11-28 12:30:00,41.6,23.8,30.40,ENE,60,5.0,5.0,49,0.00,,,0.00,Wunderground v.1.15,2013-11-28 17:30:00,
2013-11-28 12:35:00,41.6,22.3,30.40,ENE,74,5.0,5.0,46,0.00,,,0.00,Wunderground v.1.15,2013-11-28 17:35:00,
2013-11-28 12:40:00,41.6,22.8,30.40,NNE,15,4.0,5.0,47,0.00,,,0.00,Wunderground v.1.15,2013-11-28 17:40:00,
2013-11-28 12:45:00,41.9,23.1,30.40,NE,44,5.0,9.0,47,0.00,,,0.00,Wunderground v.1.15,2013-11-28 17:45:00,
2013-11-28 12:50:00,41.9,22.6,30.40,East,79,5.0,5.0,46,0.00,,,0.00,Wunderground v.1.15,2013-11-28 17:50:00,
2013-11-28 12:55:00,42.0,22.2,30.40,North,356,5.0,5.0,45,0.00,,,0.00,Wunderground v.1.15,2013-11-28 17:55:00,
2013-11-28 13:00:00,42.4,22.5,30.40,ENE,66,4.0,4.0,45,0.00,,,0.00,Wunderground v.1.15,2013-11-28 18:00:00,
2013-11-28 13:10:00,42.7,22.8,30.40,East,98,4.0,4.0,45,0.00,,,0.00,Wunderground v.1.15,2013-11-28 18:10:00,
2013-11-28 13:15:00,43.1,23.2,30.40,SE,129,4.0,4.0,45,0.00,,,0.00,Wunderground v.1.15,2013-11-28 18:15:00,
2013-11-28 13:20:00,42.8,23.9,30.40,East,97,3.0,6.0,47,0.00,,,0.00,Wunderground v.1.15,2013-11-28 18:20:00,
2013-11-28 13:25:00,43.1,23.2,30.40,NE,44,4.0,6.0,45,0.00,,,0.00,Wunderground v.1.15,2013-11-28 18:25:00,
2013-11-28 13:35:00,43.1,25.2,30.40,SE,129,3.0,8.0,49,0.00,,,0.00,Wunderground v.1.15,2013-11-28 18:35:00,
2013-11-28 13:40:00,42.6,24.3,30.40,ESE,111,5.0,5.0,48,0.00,,,0.00,Wunderground v.1.15,2013-11-28 18:40:00,
2013-11-28 13:45:00,42.6,24.3,30.40,ESE,103,5.0,6.0,48,0.00,,,0.00,Wunderground v.1.15,2013-11-28 18:45:00,
2013-11-28 13:50:00,43.1,25.7,30.40,NE,51,5.0,6.0,50,0.00,,,0.00,Wunderground v.1.15,2013-11-28 18:50:00,
2013-11-28 13:55:00,42.9,24.5,30.40,SE,131,4.0,6.0,48,0.00,,,0.00,Wunderground v.1.15,2013-11-28 18:55:00,
2013-11-28 14:00:00,43.0,24.6,30.40,ENE,77,4.0,4.0,48,0.00,,,0.00,Wunderground v.1.15,2013-11-28 19:00:00,
2013-11-28 14:05:00,43.0,24.6,30.40,NE,53,5.0,7.0,48,0.00,,,0.00,Wunderground v.1.15,2013-11-28 19:05:00,
2013-11-28 14:15:00,43.2,24.8,30.41,ENE,64,5.0,6.0,48,0.00,,,0.00,Wunderground v.1.15,2013-11-28 19:15:00,
2013-11-28 14:25:00,43.6,25.2,30.41,East,82,4.0,5.0,48,0.00,,,0.00,Wunderground v.1.15,2013-11-28 19:25:00,
2013-11-28 14:35:00,43.6,27.1,30.41,ESE,115,4.0,6.0,52,0.00,,,0.00,Wunderground v.1.15,2013-11-28 19:35:00,
2013-11-28 14:45:00,43.4,26.0,30.41,ENE,78,5.0,6.0,50,0.00,,,0.00,Wunderground v.1.15,2013-11-28 19:45:00,
2013-11-28 14:55:00,43.5,27.0,30.42,East,91,5.0,6.0,52,0.00,,,0.00,Wunderground v.1.15,2013-11-28 19:55:00,
2013-11-28 15:00:00,43.5,26.6,30.41,ESE,115,4.0,4.0,51,0.00,,,0.00,Wunderground v.1.15,2013-11-28 20:00:00,
2013-11-28 15:10:00,43.5,26.6,30.42,ESE,117,4.0,5.0,51,0.00,,,0.00,Wunderground v.1.15,2013-11-28 20:10:00,
2013-11-28 15:15:00,43.4,27.4,30.42,ESE,121,4.0,5.0,53,0.00,,,0.00,Wunderground v.1.15,2013-11-28 20:15:00,
2013-11-28 15:20:00,43.3,27.3,30.42,ESE,116,4.0,4.0,53,0.00,,,0.00,Wunderground v.1.15,2013-11-28 20:20:00,
2013-11-28 15:25:00,43.3,27.8,30.42,SE,138,4.0,5.0,54,0.00,,,0.00,Wunderground v.1.15,2013-11-28 20:25:00,
2013-11-28 15:30:00,43.4,26.5,30.42,ESE,103,4.0,4.0,51,0.00,,,0.00,Wunderground v.1.15,2013-11-28 20:30:00,
2013-11-28 15:40:00,43.5,27.5,30.42,SE,146,3.0,5.0,53,0.00,,,0.00,Wunderground v.1.15,2013-11-28 20:40:00,
2013-11-28 15:45:00,43.5,27.9,30.42,SE,135,4.0,5.0,54,0.00,,,0.00,Wunderground v.1.15,2013-11-28 20:45:00,
2013-11-28 15:50:00,43.5,27.9,30.43,ESE,121,4.0,4.0,54,0.00,,,0.00,Wunderground v.1.15,2013-11-28 20:50:00,
2013-11-28 15:55:00,43.5,27.0,30.43,ESE,117,3.0,4.0,52,0.00,,,0.00,Wunderground v.1.15,2013-11-28 20:55:00,
2013-11-28 16:00:00,43.5,28.4,30.43,East,101,2.0,3.0,55,0.00,,,0.00,Wunderground v.1.15,2013-11-28 21:00:00,
2013-11-28 16:10:00,43.5,28.8,30.43,East,82,3.0,3.0,56,0.00,,,0.00,Wunderground v.1.15,2013-11-28 21:10:00,
2013-11-28 16:20:00,43.7,27.7,30.44,East,88,2.0,2.0,53,0.00,,,0.00,Wunderground v.1.15,2013-11-28 21:20:00,
2013-11-28 16:30:00,43.7,27.7,30.44,SE,131,2.0,2.0,53,0.00,,,0.00,Wunderground v.1.15,2013-11-28 21:30:00,
2013-11-28 16:35:00,43.5,27.5,30.44,SE,131,2.0,2.0,53,0.00,,,0.00,Wunderground v.1.15,2013-11-28 21:35:00,
2013-11-28 16:40:00,43.1,28.0,30.44,East,100,2.0,2.0,55,0.00,,,0.00,Wunderground v.1.15,2013-11-28 21:40:00,
2013-11-28 16:50:00,42.4,27.8,30.45,ENE,75,1.0,1.0,56,0.00,,,0.00,Wunderground v.1.15,2013-11-28 21:50:00,
2013-11-28 17:00:00,42.0,27.4,30.45,ENE,71,1.0,1.0,56,0.00,,,0.00,Wunderground v.1.15,2013-11-28 22:00:00,
2013-11-28 17:10:00,41.6,27.5,30.45,ENE,77,1.0,1.0,57,0.00,,,0.00,Wunderground v.1.15,2013-11-28 22:10:00,
2013-11-28 17:20:00,41.3,26.8,30.45,East,96,1.0,1.0,56,0.00,,,0.00,Wunderground v.1.15,2013-11-28 22:20:00,
2013-11-28 17:30:00,41.2,27.9,30.46,ENE,63,1.0,1.0,59,0.00,,,0.00,Wunderground v.1.15,2013-11-28 22:30:00,
2013-11-28 17:40:00,40.9,27.7,30.46,NE,50,2.0,2.0,59,0.00,,,0.00,Wunderground v.1.15,2013-11-28 22:40:00,
2013-11-28 17:50:00,41.1,26.6,30.46,ENE,61,1.0,2.0,56,0.00,,,0.00,Wunderground v.1.15,2013-11-28 22:50:00,
2013-11-28 18:00:00,40.9,30.0,30.47,ENE,65,2.0,2.0,65,0.00,,,0.00,Wunderground v.1.15,2013-11-28 23:00:00,
2013-11-28 18:10:00,40.6,30.5,30.48,NE,47,1.0,1.0,67,0.00,,,0.00,Wunderground v.1.15,2013-11-28 23:10:00,
2013-11-28 18:20:00,40.3,32.0,30.48,ENE,61,1.0,1.0,72,0.00,,,0.00,Wunderground v.1.15,2013-11-28 23:20:00,
2013-11-28 18:30:00,40.0,33.0,30.47,NE,53,1.0,1.0,76,0.00,,,0.00,Wunderground v.1.15,2013-11-28 23:30:00,
2013-11-28 18:40:00,39.8,34.1,30.48,ENE,63,1.0,1.0,80,0.00,,,0.00,Wunderground v.1.15,2013-11-28 23:40:00,
2013-11-28 18:50:00,39.8,33.5,30.48,NE,46,1.0,1.0,78,0.00,,,0.00,Wunderground v.1.15,2013-11-28 23:50:00,
2013-11-28 18:55:00,39.4,33.4,30.48,NNE,23,1.0,2.0,79,0.00,,,0.00,Wunderground v.1.15,2013-11-28 23:55:00,
2013-11-28 19:00:00,39.1,32.2,30.48,NNE,27,1.0,1.0,76,0.00,,,0.00,Wunderground v.1.15,2013-11-29 00:00:00,
2013-11-28 19:10:00,39.2,30.6,30.49,NE,41,2.0,2.0,71,0.00,,,0.00,Wunderground v.1.15,2013-11-29 00:10:00,
2013-11-28 19:15:00,39.0,30.7,30.49,NE,43,1.0,2.0,72,0.00,,,0.00,Wunderground v.1.15,2013-11-29 00:15:00,
2013-11-28 19:20:00,38.9,31.6,30.49,North,352,1.0,2.0,75,0.00,,,0.00,Wunderground v.1.15,2013-11-29 00:20:00,
2013-11-28 19:25:00,38.6,32.0,30.49,North,6,1.0,2.0,77,0.00,,,0.00,Wunderground v.1.15,2013-11-29 00:25:00,
2013-11-28 19:30:00,38.4,31.8,30.49,NNW,346,1.0,1.0,77,0.00,,,0.00,Wunderground v.1.15,2013-11-29 00:30:00,
2013-11-28 19:35:00,38.1,31.8,30.49,North,4,1.0,1.0,78,0.00,,,0.00,Wunderground v.1.15,2013-11-29 00:35:00,
2013-11-28 19:40:00,38.0,31.4,30.49,North,352,1.0,1.0,77,0.00,,,0.00,Wunderground v.1.15,2013-11-29 00:40:00,
2013-11-28 19:50:00,37.6,31.4,30.49,North,5,1.0,2.0,78,0.00,,,0.00,Wunderground v.1.15,2013-11-29 00:50:00,
2013-11-28 19:55:00,37.5,31.6,30.49,NNW,347,1.0,2.0,79,0.00,,,0.00,Wunderground v.1.15,2013-11-29 00:55:00,
2013-11-28 20:00:00,37.5,31.6,30.50,NNW,347,1.0,1.0,79,0.00,,,0.00,Wunderground v.1.15,2013-11-29 01:00:00,
2013-11-28 20:10:00,37.5,31.9,30.50,North,350,1.0,1.0,80,0.00,,,0.00,Wunderground v.1.15,2013-11-29 01:10:00,
2013-11-28 20:20:00,37.2,31.3,30.50,NNE,15,1.0,1.0,79,0.00,,,0.00,Wunderground v.1.15,2013-11-29 01:20:00,
2013-11-28 20:30:00,37.8,30.9,30.50,NE,36,1.0,2.0,76,0.00,,,0.00,Wunderground v.1.15,2013-11-29 01:30:00,
2013-11-28 20:40:00,37.8,30.9,30.50,NNE,27,2.0,2.0,76,0.00,,,0.00,Wunderground v.1.15,2013-11-29 01:40:00,
2013-11-28 20:45:00,37.7,30.8,30.50,NNE,25,2.0,2.0,76,0.00,,,0.00,Wunderground v.1.15,2013-11-29 01:45:00,
2013-11-28 20:50:00,37.5,30.6,30.49,NNE,18,3.0,3.0,76,0.00,,,0.00,Wunderground v.1.15,2013-11-29 01:50:00,
2013-11-28 20:55:00,37.2,30.7,30.50,NNE,20,3.0,3.0,77,0.00,,,0.00,Wunderground v.1.15,2013-11-29 01:55:00,
2013-11-28 21:00:00,37.2,29.7,30.50,NE,53,2.0,2.0,74,0.00,,,0.00,Wunderground v.1.15,2013-11-29 02:00:00,
2013-11-28 21:10:00,37.0,29.5,30.50,NE,53,1.0,1.0,74,0.00,,,0.00,Wunderground v.1.15,2013-11-29 02:10:00,
2013-11-28 21:20:00,37.1,29.6,30.50,NNE,20,2.0,2.0,74,0.00,,,0.00,Wunderground v.1.15,2013-11-29 02:20:00,
2013-11-28 21:30:00,36.9,28.7,30.50,NNE,25,2.0,2.0,72,0.00,,,0.00,Wunderground v.1.15,2013-11-29 02:30:00,
2013-11-28 21:35:00,36.8,28.6,30.50,NNE,25,2.0,2.0,72,0.00,,,0.00,Wunderground v.1.15,2013-11-29 02:35:00,
2013-11-28 21:45:00,36.4,28.6,30.50,NE,39,2.0,2.0,73,0.00,,,0.00,Wunderground v.1.15,2013-11-29 02:45:00,
2013-11-28 21:50:00,36.2,28.7,30.50,NE,35,2.0,2.0,74,0.00,,,0.00,Wunderground v.1.15,2013-11-29 02:50:00,
2013-11-28 22:00:00,35.8,28.6,30.50,NE,56,2.0,3.0,75,0.00,,,0.00,Wunderground v.1.15,2013-11-29 03:00:00,
2013-11-28 22:10:00,35.7,28.6,30.50,NNE,20,2.0,3.0,75,0.00,,,0.00,Wunderground v.1.15,2013-11-29 03:10:00,
2013-11-28 22:15:00,35.7,28.9,30.50,NNE,20,2.0,3.0,76,0.00,,,0.00,Wunderground v.1.15,2013-11-29 03:15:00,
2013-11-28 22:25:00,35.6,29.1,30.50,NNE,13,2.0,2.0,77,0.00,,,0.00,Wunderground v.1.15,2013-11-29 03:25:00,
2013-11-28 22:30:00,35.6,28.8,30.51,NNE,19,2.0,3.0,76,0.00,,,0.00,Wunderground v.1.15,2013-11-29 03:30:00,
2013-11-28 22:35:00,35.6,28.5,30.51,NNE,13,3.0,4.0,75,0.00,,,0.00,Wunderground v.1.15,2013-11-29 03:35:00,
2013-11-28 22:40:00,35.6,28.8,30.51,NNE,20,3.0,3.0,76,0.00,,,0.00,Wunderground v.1.15,2013-11-29 03:40:00,
2013-11-28 22:45:00,35.5,29.0,30.50,North,11,3.0,3.0,77,0.00,,,0.00,Wunderground v.1.15,2013-11-29 03:45:00,
2013-11-28 22:50:00,35.4,28.9,30.50,NNE,18,3.0,3.0,77,0.00,,,0.00,Wunderground v.1.15,2013-11-29 03:50:00,
2013-11-28 22:55:00,35.3,29.1,30.50,NNE,33,2.0,3.0,78,0.00,,,0.00,Wunderground v.1.15,2013-11-29 03:55:00,
2013-11-28 23:00:00,35.3,29.4,30.50,NNE,33,2.0,3.0,79,0.00,,,0.00,Wunderground v.1.15,2013-11-29 04:00:00,
2013-11-28 23:10:00,35.3,29.4,30.50,North,8,2.0,2.0,79,0.00,,,0.00,Wunderground v.1.15,2013-11-29 04:10:00,
2013-11-28 23:15:00,35.1,29.6,30.50,NNE,12,3.0,3.0,80,0.00,,,0.00,Wunderground v.1.15,2013-11-29 04:15:00,
2013-11-28 23:25:00,34.8,29.6,30.50,NNE,20,2.0,3.0,81,0.00,,,0.00,Wunderground v.1.15,2013-11-29 04:25:00,
2013-11-28 23:30:00,34.7,29.5,30.50,NE,40,2.0,2.0,81,0.00,,,0.00,Wunderground v.1.15,2013-11-29 04:30:00,
2013-11-28 23:35:00,34.6,29.4,30.50,NE,41,2.0,2.0,81,0.00,,,0.00,Wunderground v.1.15,2013-11-29 04:35:00,
2013-11-28 23:40:00,34.5,29.6,30.50,NNE,20,2.0,4.0,82,0.00,,,0.00,Wunderground v.1.15,2013-11-29 04:40:00,
2013-11-28 23:45:00,34.3,29.4,30.50,NNE,33,2.0,4.0,82,0.00,,,0.00,Wunderground v.1.15,2013-11-29 04:45:00,
2013-11-28 23:50:00,34.2,29.3,30.50,NNE,27,3.0,3.0,82,0.00,,,0.00,Wunderground v.1.15,2013-11-29 04:50:00,
2013-11-28 23:55:00,34.2,29.3,30.50,North,349,3.0,3.0,82,0.00,,,0.00,Wunderground v.1.15,2013-11-29 04:55:00,